Time,TemperatureF,DewpointF,PressureIn,WindDirection,WindDirectionDegrees,WindSpeedMPH,WindSpeedGustMPH,Humidity,HourlyPrecipIn,Conditions,Clouds,dailyrainin,SoftwareType,DateUTC
2013-03-17 00:08:00,31.6,29.0,29.90,NE,37,0.0,1.0,91,0.00,,,0.00,weatherlink.com 1.10,2013-03-17 04:08:00,
2013-03-17 00:23:00,31.6,29.0,29.90,NNE,19,0.0,2.0,90,0.00,,,0.00,weatherlink.com 1.10,2013-03-17 04:23:00,
2013-03-17 00:38:00,31.6,29.0,29.90,WNW,292,0.0,0.0,90,0.00,,,0.00,weatherlink.com 1.10,2013-03-17 04:38:00,
2013-03-17 00:53:00,31.4,29.0,29.90,WNW,292,0.0,0.0,89,0.00,,,0.00,weatherlink.com 1.10,2013-03-17 04:53:00,
2013-03-17 01:08:00,31.1,28.0,29.90,WNW,292,0.0,2.0,89,0.00,,,0.00,weatherlink.com 1.10,2013-03-17 05:08:00,
2013-03-17 01:23:00,30.8,28.0,29.90,WNW,292,0.0,1.0,89,0.00,,,0.00,weatherlink.com 1.10,2013-03-17 05:23:00,
2013-03-17 01:38:00,30.5,28.0,29.90,WNW,292,0.0,2.0,89,0.00,,,0.00,weatherlink.com 1.10,2013-03-17 05:38:00,
2013-03-17 01:53:00,30.4,28.0,29.90,WNW,291,0.0,3.0,89,0.00,,,0.00,weatherlink.com 1.10,2013-03-17 05:53:00,
2013-03-17 02:08:00,30.2,28.0,29.91,WNW,299,0.0,3.0,90,0.00,,,0.00,weatherlink.com 1.10,2013-03-17 06:08:00,
2013-03-17 02:23:00,30.1,27.0,29.91,NW,315,0.0,3.0,89,0.00,,,0.00,weatherlink.com 1.10,2013-03-17 06:23:00,
2013-03-17 02:38:00,30.0,27.0,29.92,NW,312,1.0,3.0,88,0.00,,,0.00,weatherlink.com 1.10,2013-03-17 06:38:00,
2013-03-17 02:53:00,30.0,27.0,29.92,NW,323,2.0,4.0,88,0.00,,,0.00,weatherlink.com 1.10,2013-03-17 06:53:00,
2013-03-17 03:08:00,29.8,26.0,29.92,North,350,2.0,6.0,86,0.00,,,0.00,weatherlink.com 1.10,2013-03-17 07:08:00,
2013-03-17 03:23:00,29.6,25.0,29.93,WNW,298,0.0,5.0,84,0.00,,,0.00,weatherlink.com 1.10,2013-03-17 07:23:00,
2013-03-17 03:38:00,29.4,24.0,29.93,NNW,333,3.0,7.0,81,0.00,,,0.00,weatherlink.com 1.10,2013-03-17 07:38:00,
2013-03-17 03:53:00,29.3,24.0,29.94,NNW,343,0.0,5.0,80,0.00,,,0.00,weatherlink.com 1.10,2013-03-17 07:53:00,
2013-03-17 04:08:00,29.1,24.0,29.94,NW,306,2.0,6.0,80,0.00,,,0.00,weatherlink.com 1.10,2013-03-17 08:08:00,
2013-03-17 04:23:00,29.0,23.0,29.95,WNW,299,0.0,8.0,79,0.00,,,0.00,weatherlink.com 1.10,2013-03-17 08:23:00,
2013-03-17 04:39:00,28.9,23.0,29.95,NNW,327,4.0,9.0,77,0.00,,,0.00,weatherlink.com 1.10,2013-03-17 08:39:00,
2013-03-17 04:54:00,28.8,22.0,29.96,NNW,327,3.0,4.0,77,0.00,,,0.00,weatherlink.com 1.10,2013-03-17 08:54:00,
2013-03-17 05:09:00,28.4,22.0,29.96,NNW,329,2.0,4.0,78,0.00,,,0.00,weatherlink.com 1.10,2013-03-17 09:09:00,
2013-03-17 05:24:00,28.1,22.0,29.98,NW,311,1.0,7.0,78,0.00,,,0.00,weatherlink.com 1.10,2013-03-17 09:24:00,
2013-03-17 05:39:00,28.0,22.0,29.98,WNW,302,0.0,3.0,79,0.00,,,0.00,weatherlink.com 1.10,2013-03-17 09:39:00,
2013-03-17 05:54:00,27.7,22.0,29.99,NNW,329,0.0,5.0,79,0.00,,,0.00,weatherlink.com 1.10,2013-03-17 09:54:00,
2013-03-17 06:09:00,27.5,22.0,29.99,NNW,342,2.0,6.0,80,0.00,,,0.00,weatherlink.com 1.10,2013-03-17 10:09:00,
2013-03-17 06:24:00,27.2,21.0,30.00,NW,321,0.0,8.0,78,0.00,,,0.00,weatherlink.com 1.10,2013-03-17 10:24:00,
2013-03-17 06:39:00,26.9,21.0,30.01,NNW,330,3.0,10.0,77,0.00,,,0.00,weatherlink.com 1.10,2013-03-17 10:39:00,
2013-03-17 06:54:00,26.6,20.0,30.02,WNW,291,6.0,9.0,75,0.00,,,0.00,weatherlink.com 1.10,2013-03-17 10:54:00,
2013-03-17 07:09:00,26.4,19.0,30.04,WNW,289,4.0,9.0,74,0.00,,,0.00,weatherlink.com 1.10,2013-03-17 11:09:00,
2013-03-17 07:24:00,26.2,19.0,30.05,NW,313,2.0,6.0,73,0.00,,,0.00,weatherlink.com 1.10,2013-03-17 11:24:00,
2013-03-17 07:39:00,26.2,19.0,30.05,NNW,336,2.0,8.0,73,0.00,,,0.00,weatherlink.com 1.10,2013-03-17 11:39:00,
2013-03-17 07:54:00,26.4,18.0,30.06,WNW,292,3.0,8.0,70,0.00,,,0.00,weatherlink.com 1.10,2013-03-17 11:54:00,
2013-03-17 08:09:00,26.7,18.0,30.06,NNW,343,4.0,6.0,69,0.00,,,0.00,weatherlink.com 1.10,2013-03-17 12:09:00,
2013-03-17 08:24:00,26.9,17.0,30.06,NNE,15,5.0,8.0,66,0.00,,,0.00,weatherlink.com 1.10,2013-03-17 12:24:00,
2013-03-17 08:39:00,27.4,17.0,30.07,NW,325,1.0,8.0,65,0.00,,,0.00,weatherlink.com 1.10,2013-03-17 12:39:00,
2013-03-17 08:54:00,27.9,18.0,30.09,WNW,288,2.0,6.0,66,0.00,,,0.00,weatherlink.com 1.10,2013-03-17 12:54:00,
2013-03-17 09:09:00,28.4,18.0,30.09,NNW,333,4.0,8.0,66,0.00,,,0.00,weatherlink.com 1.10,2013-03-17 13:09:00,
2013-03-17 09:24:00,28.5,18.0,30.11,NNW,338,4.0,10.0,65,0.00,,,0.00,weatherlink.com 1.10,2013-03-17 13:24:00,
2013-03-17 09:39:00,29.1,19.0,30.11,NW,325,0.0,9.0,66,0.00,,,0.00,weatherlink.com 1.10,2013-03-17 13:39:00,
2013-03-17 09:54:00,29.5,18.0,30.11,North,350,4.0,8.0,62,0.00,,,0.00,weatherlink.com 1.10,2013-03-17 13:54:00,
2013-03-17 10:09:00,30.0,19.0,30.10,NNW,338,3.0,6.0,63,0.00,,,0.00,weatherlink.com 1.10,2013-03-17 14:09:00,
2013-03-17 10:24:00,30.0,18.0,30.11,NNW,341,5.0,11.0,62,0.00,,,0.00,weatherlink.com 1.10,2013-03-17 14:24:00,
2013-03-17 10:39:00,29.6,18.0,30.12,NNE,19,7.0,10.0,62,0.00,,,0.00,weatherlink.com 1.10,2013-03-17 14:39:00,
2013-03-17 10:54:00,29.7,19.0,30.12,NNW,334,3.0,7.0,64,0.01,,,0.01,weatherlink.com 1.10,2013-03-17 14:54:00,
2013-03-17 11:09:00,29.8,18.0,30.12,North,360,6.0,9.0,63,0.01,,,0.01,weatherlink.com 1.10,2013-03-17 15:09:00,
2013-03-17 11:24:00,29.8,18.0,30.12,NNW,332,2.0,9.0,62,0.01,,,0.01,weatherlink.com 1.10,2013-03-17 15:24:00,
2013-03-17 11:39:00,30.1,18.0,30.12,NNW,334,3.0,11.0,62,0.01,,,0.01,weatherlink.com 1.10,2013-03-17 15:39:00,
2013-03-17 11:55:00,30.4,18.0,30.11,North,349,3.0,9.0,61,0.00,,,0.01,weatherlink.com 1.10,2013-03-17 15:55:00,
2013-03-17 12:10:00,30.8,18.0,30.11,NE,38,8.0,16.0,59,0.00,,,0.01,weatherlink.com 1.10,2013-03-17 16:10:00,
2013-03-17 12:25:00,31.6,19.0,30.12,WNW,292,9.0,9.0,59,0.00,,,0.01,weatherlink.com 1.10,2013-03-17 16:25:00,
2013-03-17 12:40:00,31.3,18.0,30.12,WNW,288,4.0,9.0,58,0.00,,,0.01,weatherlink.com 1.10,2013-03-17 16:40:00,
2013-03-17 12:55:00,32.2,19.0,30.12,North,5,2.0,9.0,59,0.00,,,0.01,weatherlink.com 1.10,2013-03-17 16:55:00,
2013-03-17 13:10:00,32.8,19.0,30.13,North,5,4.0,13.0,58,0.00,,,0.01,weatherlink.com 1.10,2013-03-17 17:10:00,
2013-03-17 13:25:00,32.6,20.0,30.13,WNW,283,5.0,10.0,59,0.00,,,0.01,weatherlink.com 1.10,2013-03-17 17:25:00,
2013-03-17 13:40:00,33.1,20.0,30.12,NW,322,3.0,9.0,58,0.00,,,0.01,weatherlink.com 1.10,2013-03-17 17:40:00,
2013-03-17 13:55:00,33.2,19.0,30.12,North,5,5.0,9.0,57,0.00,,,0.01,weatherlink.com 1.10,2013-03-17 17:55:00,
2013-03-17 14:10:00,33.7,18.0,30.12,North,355,5.0,13.0,54,0.00,,,0.01,weatherlink.com 1.10,2013-03-17 18:10:00,
2013-03-17 14:25:00,34.3,20.0,30.12,West,267,4.0,7.0,55,0.00,,,0.01,weatherlink.com 1.10,2013-03-17 18:25:00,
2013-03-17 14:40:00,34.9,19.0,30.12,NNW,336,0.0,14.0,53,0.00,,,0.01,weatherlink.com 1.10,2013-03-17 18:40:00,
2013-03-17 14:55:00,35.0,17.0,30.11,NNW,344,0.0,11.0,48,0.00,,,0.01,weatherlink.com 1.10,2013-03-17 18:55:00,
2013-03-17 15:10:00,35.3,17.0,30.11,NNE,12,0.0,10.0,48,0.00,,,0.01,weatherlink.com 1.10,2013-03-17 19:10:00,
2013-03-17 15:25:00,35.7,16.0,30.11,North,5,5.0,12.0,45,0.00,,,0.01,weatherlink.com 1.10,2013-03-17 19:25:00,
2013-03-17 15:40:00,35.7,17.0,30.12,NNW,345,0.0,9.0,46,0.00,,,0.01,weatherlink.com 1.10,2013-03-17 19:40:00,
2013-03-17 15:55:00,35.9,17.0,30.12,NNW,332,0.0,0.0,46,0.00,,,0.01,weatherlink.com 1.10,2013-03-17 19:55:00,
2013-03-17 16:10:00,36.0,16.0,30.12,North,360,0.0,0.0,45,0.00,,,0.01,weatherlink.com 1.10,2013-03-17 20:10:00,
2013-03-17 16:25:00,35.9,16.0,30.13,WNW,282,0.0,0.0,45,0.00,,,0.01,weatherlink.com 1.10,2013-03-17 20:25:00,
2013-03-17 16:40:00,35.8,16.0,30.13,North,360,0.0,0.0,44,0.00,,,0.01,weatherlink.com 1.10,2013-03-17 20:40:00,
2013-03-17 16:55:00,36.0,16.0,30.13,NNW,331,0.0,0.0,45,0.00,,,0.01,weatherlink.com 1.10,2013-03-17 20:55:00,
2013-03-17 17:10:00,35.8,16.0,30.13,WNW,300,0.0,0.0,45,0.00,,,0.01,weatherlink.com 1.10,2013-03-17 21:10:00,
2013-03-17 17:25:00,36.0,16.0,30.14,NW,317,0.0,0.0,45,0.00,,,0.01,weatherlink.com 1.10,2013-03-17 21:25:00,
2013-03-17 17:40:00,35.8,16.0,30.15,WNW,302,0.0,0.0,45,0.00,,,0.01,weatherlink.com 1.10,2013-03-17 21:40:00,
2013-03-17 17:55:00,35.7,16.0,30.16,NW,310,0.0,0.0,45,0.00,,,0.01,weatherlink.com 1.10,2013-03-17 21:55:00,
2013-03-17 18:10:00,35.6,16.0,30.16,North,5,0.0,0.0,44,0.00,,,0.01,weatherlink.com 1.10,2013-03-17 22:10:00,
2013-03-17 18:25:00,35.5,16.0,30.16,NW,304,0.0,0.0,45,0.00,,,0.01,weatherlink.com 1.10,2013-03-17 22:25:00,
2013-03-17 18:40:00,35.4,15.0,30.17,NW,322,0.0,0.0,44,0.00,,,0.01,weatherlink.com 1.10,2013-03-17 22:40:00,
2013-03-17 18:55:00,35.2,15.0,30.18,NW,305,0.0,0.0,44,0.00,,,0.01,weatherlink.com 1.10,2013-03-17 22:55:00,
2013-03-17 19:10:00,34.8,15.0,30.19,WNW,301,0.0,0.0,45,0.00,,,0.01,weatherlink.com 1.10,2013-03-17 23:10:00,
2013-03-17 19:25:00,34.5,15.0,30.19,WNW,299,0.0,0.0,45,0.00,,,0.01,weatherlink.com 1.10,2013-03-17 23:25:00,
2013-03-17 19:40:00,34.3,15.0,30.20,NW,305,0.0,0.0,45,0.00,,,0.01,weatherlink.com 1.10,2013-03-17 23:40:00,
2013-03-17 19:55:00,34.1,15.0,30.21,WNW,302,0.0,0.0,45,0.00,,,0.01,weatherlink.com 1.10,2013-03-17 23:55:00,
2013-03-17 20:10:00,33.8,15.0,30.22,WNW,302,0.0,0.0,46,0.00,,,0.01,weatherlink.com 1.10,2013-03-18 00:10:00,
2013-03-17 20:25:00,33.7,14.0,30.23,NW,307,0.0,0.0,45,0.00,,,0.01,weatherlink.com 1.10,2013-03-18 00:25:00,
2013-03-17 20:40:00,34.0,12.0,30.23,NNW,329,0.0,0.0,41,0.00,,,0.01,weatherlink.com 1.10,2013-03-18 00:40:00,
2013-03-17 20:55:00,33.9,12.0,30.24,NNW,331,0.0,0.0,41,0.00,,,0.01,weatherlink.com 1.10,2013-03-18 00:55:00,
2013-03-17 21:10:00,33.7,13.0,30.25,NNW,332,0.0,0.0,42,0.00,,,0.01,weatherlink.com 1.10,2013-03-18 01:10:00,
2013-03-17 21:25:00,33.2,13.0,30.25,NNW,332,0.0,0.0,43,0.00,,,0.01,weatherlink.com 1.10,2013-03-18 01:25:00,
2013-03-17 21:40:00,32.9,12.0,30.26,NNW,332,0.0,0.0,43,0.00,,,0.01,weatherlink.com 1.10,2013-03-18 01:40:00,
2013-03-17 21:55:00,32.6,13.0,30.27,NNW,332,0.0,0.0,45,0.00,,,0.01,weatherlink.com 1.10,2013-03-18 01:55:00,
2013-03-17 22:10:00,32.2,13.0,30.27,NNW,332,0.0,0.0,45,0.00,,,0.01,weatherlink.com 1.10,2013-03-18 02:10:00,
2013-03-17 22:26:00,32.1,13.0,30.28,NNW,333,0.0,0.0,45,0.00,,,0.01,weatherlink.com 1.10,2013-03-18 02:26:00,
2013-03-17 22:41:00,32.0,13.0,30.29,NNW,335,0.0,0.0,45,0.00,,,0.01,weatherlink.com 1.10,2013-03-18 02:41:00,
2013-03-17 22:56:00,31.7,13.0,30.29,NNW,336,0.0,0.0,46,0.00,,,0.01,weatherlink.com 1.10,2013-03-18 02:56:00,
2013-03-17 23:11:00,31.3,13.0,30.29,NNW,336,0.0,0.0,46,0.00,,,0.01,weatherlink.com 1.10,2013-03-18 03:11:00,
2013-03-17 23:26:00,31.0,13.0,30.29,NNW,336,0.0,0.0,47,0.00,,,0.01,weatherlink.com 1.10,2013-03-18 03:26:00,
2013-03-17 23:41:00,30.6,13.0,30.29,NNW,336,0.0,0.0,48,0.00,,,0.01,weatherlink.com 1.10,2013-03-18 03:41:00,
2013-03-17 23:56:00,30.3,13.0,30.29,North,355,0.0,0.0,49,0.00,,,0.01,weatherlink.com 1.10,2013-03-18 03:56:00,